EHI
0 0 0 0 0 0 0 0 0 1 3 6 8 10 11 12 12 13 13 13 11 8 8 11 18 24 25 25 25 26 28 29 29 29 29 26 22 22 22 21 19 17 15 13
0 0 0 0 0 0 0 0 0 2 5 7 9 11 11 11 11 12 13 13 12 9 8 13 19 24 25 24 22 22 24 25 25 26 26 23 20 18 20 20 20 19 17 15
0 0 0 0 1 1 1 0 1 3 6 9 11 12 12 11 11 12 12 13 13 11 10 14 19 23 23 21 19 19 19 20 21 23 23 20 17 16 17 18 18 19 18 17
0 0 0 1 2 2 2 2 2 5 7 10 11 12 11 11 11 12 13 13 13 13 12 14 17 18 19 19 19 18 17 17 18 19 19 18 17 15 15 15 15 16 16 16
0 0 0 1 3 3 3 3 2 4 7 9 10 9 8 7 9 11 12 12 12 13 14 14 14 14 15 17 18 18 17 17 17 16 17 18 16 14 13 13 13 13 13 13
0 0 0 1 2 2 3 2 1 3 5 6 5 5 3 3 5 8 10 11 11 11 12 12 11 11 12 14 15 16 17 18 17 16 16 18 17 15 13 12 11 11 10 9
0 0 0 1 1 1 1 1 1 1 3 3 3 2 2 3 4 7 9 10 10 10 11 10 9 8 9 10 12 14 16 16 16 16 16 17 18 17 14 12 11 10 8 7
0 0 0 1 2 1 1 1 2 1 1 3 4 4 5 5 6 7 9 9 9 9 11 11 9 8 8 10 11 11 12 13 14 14 16 17 17 16 15 13 12 11 9 7
1 1 1 2 3 3 2 3 3 2 1 3 4 5 6 6 6 6 7 9 8 8 11 12 11 10 11 11 11 10 9 9 10 12 15 16 16 15 14 13 13 12 9 7
2 2 3 3 3 2 3 3 3 3 3 3 3 3 4 5 5 4 6 9 9 9 11 12 12 12 13 13 11 9 8 7 7 9 12 13 13 12 12 12 12 10 8 6
3 3 2 2 1 1 1 2 2 2 2 2 2 1 2 3 4 4 5 7 9 10 11 12 13 13 13 13 12 11 8 7 7 7 9 9 8 7 8 8 8 6 5 5
2 1 1 1 0 0 0 1 1 1 1 1 1 0 1 1 2 2 3 4 7 9 9 9 10 10 10 11 12 11 9 7 6 6 6 4 3 3 3 3 2 2 2 3
1 0 0 0 0 0 0 0 0 0 0 0 0 0 0 0 0 1 2 3 4 6 6 6 6 6 6 8 10 10 8 6 4 3 3 1 1 1 1 0 0 0 1 1
0 0 0 0 0 0 0 0 0 0 0 0 0 0 0 0 0 0 1 1 1 3 3 3 2 2 3 6 8 7 6 4 2 1 1 0 0 0 0 0 0 0 0 0
0 0 0 0 0 0 0 0 0 0 0 0 0 0 0 0 0 0 0 0 0 1 1 1 1 1 2 4 5 5 4 2 1 0 0 0 0 0 0 0 0 0 0 0
0 0 0 0 0 0 0 0 0 0 0 0 0 0 0 0 0 0 0 0 0 0 0 0 0 0 1 3 3 4 3 1 0 0 0 0 0 0 0 0 0 0 0 0
0 0 0 0 0 0 0 0 0 0 0 0 0 0 0 0 0 0 0 0 0 0 0 0 0 0 1 2 2 2 2 1 0 0 0 0 0 0 0 0 0 0 0 0
0 0 0 0 0 0 0 0 0 0 0 0 0 0 0 0 0 0 0 0 0 0 0 0 0 0 1 1 1 1 1 0 0 0 0 0 0 0 0 0 0 0 0 0
0 0 0 0 0 0 0 0 0 0 0 0 0 0 0 0 0 0 0 0 0 0 0 0 0 0 0 0 0 0 0 0 0 0 0 0 0 0 0 0 0 0 0 0
0 0 0 0 0 0 0 0 0 0 0 0 0 0 0 0 0 0 0 0 0 0 0 0 0 0 0 0 0 0 0 0 0 0 0 0 0 0 0 0 0 0 0 0
0 0 0 0 0 0 0 0 0 0 0 0 0 0 0 0 0 0 0 0 0 0 0 0 0 0 0 0 0 0 0 0 0 0 0 0 0 0 0 0 0 0 0 0
0 0 0 0 0 0 0 0 0 0 0 0 0 0 0 0 0 0 0 0 0 0 0 0 0 0 0 0 0 0 0 0 0 0 0 0 0 0 0 0 0 0 0 0
0 0 0 0 0 0 0 0 0 0 0 0 0 0 0 0 0 0 0 0 0 0 0 0 0 0 0 0 0 0 0 0 0 0 0 0 0 0 0 0 0 0 0 0
0 0 0 0 0 0 0 0 0 0 0 0 0 0 0 0 0 0 0 0 0 0 0 0 0 0 0 0 0 0 0 0 0 0 0 0 0 0 0 0 0 0 0 0
0 0 0 0 0 0 0 0 0 0 0 0 0 0 0 0 0 0 0 0 0 0 0 0 0 0 0 0 0 0 0 0 0 0 0 0 0 0 0 0 0 0 0 0
0 0 0 0 0 0 0 0 0 0 0 0 0 0 0 0 0 0 0 0 0 0 0 0 0 0 0 0 0 0 0 0 0 0 0 0 0 0 0 0 0 0 0 0
0 0 0 0 0 0 0 0 0 0 0 0 0 0 0 0 0 0 0 0 0 0 0 0 0 0 0 0 0 0 0 0 0 0 0 0 0 0 0 0 0 0 0 0
Wind_Speed
5 5 4 4 5 4 5 7 8 8 7 7 5 4 3 2 2 3 2 2 2 2 2 2 2 2 3 3 4 5 5 5 6 5 5 4 4 4 4 3 4 3 3 3
3 3 3 5 5 5 4 4 5 3 5 4 1 1 1 2 3 3 3 3 3 2 1 1 2 2 2 2 3 4 4 4 4 3 4 4 4 4 3 3 3 3 3 3
3 5 3 5 5 4 2 2 4 5 5 2 2 3 4 4 4 4 3 3 3 3 2 2 2 2 3 2 2 3 3 3 3 4 4 4 4 4 3 3 3 3 3 3
1 2 5 7 2 2 2 0 1 2 2 4 5 3 2 2 3 2 2 2 2 2 2 1 1 1 2 3 3 3 3 2 2 3 3 3 3 3 3 2 3 3 3 3
3 2 5 6 2 1 2 2 1 1 1 1 1 3 2 1 0 2 2 2 2 2 2 2 1 2 2 2 2 2 2 2 2 2 2 2 3 3 2 2 2 2 2 3
3 3 6 6 3 2 2 3 2 1 2 2 3 2 3 2 1 1 1 1 1 1 2 2 1 2 3 2 2 1 1 1 1 2 2 2 2 2 2 2 2 2 1 2
4 4 7 5 5 1 2 6 2 2 2 2 3 4 3 1 1 1 1 1 1 2 2 2 2 3 3 2 2 2 1 2 1 2 2 2 2 2 2 1 1 0 1 1
3 3 7 4 1 2 5 2 1 2 2 2 2 1 1 1 0 0 1 1 2 2 1 1 2 3 3 3 2 2 3 3 2 1 2 2 2 2 2 2 2 1 1 1
6 7 5 3 3 3 2 2 2 2 2 2 2 1 1 1 0 1 0 1 1 2 1 1 1 2 3 2 2 3 3 2 1 1 1 1 2 2 2 2 2 1 1 1
3 5 5 5 4 3 2 2 2 2 2 2 2 2 1 0 0 1 1 1 1 2 1 0 0 0 1 2 3 3 3 2 1 1 1 1 1 2 2 2 2 1 1 1
4 6 5 4 4 4 4 1 0 0 1 2 2 2 2 1 1 1 1 0 1 1 1 1 0 0 0 1 3 3 3 2 1 1 1 1 1 0 1 1 2 3 2 2
6 6 4 5 5 5 4 3 2 1 1 1 2 3 2 2 1 1 1 1 0 0 1 1 0 0 0 1 2 3 2 2 1 1 1 1 1 1 4 2 2 1 1 2
7 5 5 6 6 5 4 4 3 3 3 2 2 2 2 2 1 1 1 1 1 1 2 1 0 1 0 1 2 3 2 2 2 2 1 1 1 1 1 3 4 3 2 1
5 3 5 5 5 4 3 3 2 2 2 2 2 2 2 2 1 1 2 2 2 1 1 1 0 1 1 1 2 3 2 3 2 2 2 2 2 2 2 1 0 1 2 2
4 4 5 4 4 3 1 0 0 1 1 0 1 1 2 2 1 2 2 1 0 1 1 1 1 2 1 1 2 3 2 2 2 2 2 2 2 2 2 2 1 0 1 2
4 2 2 2 2 2 1 0 1 2 1 1 0 0 1 1 1 1 1 1 2 1 1 1 1 2 1 1 2 1 2 3 2 2 2 1 2 2 1 1 1 1 0 1
2 2 2 1 2 2 1 1 2 2 2 1 1 1 2 1 0 0 0 1 1 1 1 1 2 1 1 2 2 2 1 1 2 1 1 1 1 1 1 1 1 1 1 1
4 4 3 3 3 2 2 1 1 1 1 1 1 2 1 1 1 1 0 1 2 2 2 1 0 0 1 1 2 1 1 1 1 2 2 2 2 1 1 1 1 1 1 1
1 1 2 2 2 1 1 1 1 1 1 2 2 1 1 1 1 1 1 2 2 2 3 2 1 1 1 1 2 1 1 2 2 1 2 2 1 1 1 1 1 1 1 1
2 1 1 1 1 1 1 0 1 1 1 1 2 2 1 1 1 1 2 2 0 1 1 1 1 1 1 1 2 1 1 1 1 1 1 1 1 1 1 1 2 1 1 1
3 2 3 3 2 2 2 1 2 2 1 1 2 2 1 0 1 1 2 1 3 2 1 2 1 1 1 1 2 1 1 1 1 1 1 1 1 1 1 1 1 2 2 2
2 2 2 2 2 2 2 2 1 1 1 1 1 1 1 0 1 1 1 1 1 1 1 1 1 1 1 2 2 2 2 1 1 1 1 1 1 1 1 1 1 1 1 2
1 1 2 2 1 1 2 2 2 1 1 1 1 1 1 1 1 1 0 1 0 1 1 1 1 2 3 2 2 2 2 1 1 1 0 0 1 1 1 1 1 1 1 1
1 2 1 2 2 3 2 2 2 2 1 1 1 1 1 1 1 0 1 0 1 1 1 1 2 3 3 2 2 1 1 1 0 0 0 0 0 1 1 1 1 1 1 1
1 1 2 2 2 1 0 1 2 2 2 2 2 1 1 1 1 0 0 1 1 2 1 2 3 2 2 1 1 1 1 0 1 1 0 0 0 0 0 0 1 1 1 1
1 1 1 0 0 0 0 1 1 1 1 1 2 2 1 1 1 1 1 1 2 2 1 1 1 2 1 1 1 0 0 0 1 1 0 0 0 0 1 1 1 1 1 1
1 1 1 1 1 0 1 1 1 0 0 0 1 1 1 1 1 1 1 1 1 1 1 1 1 1 1 1 1 1 1 1 0 0 0 0 0 0 0 0 1 1 1 1
Wind_Direction
245 256 242 242 251 216 191 191 194 223 217 243 240 221 212 187 154 138 150 155 160 165 173 148 140 152 163 174 178 175 172 181 196 200 194 193 198 198 189 195 207 204 203 216
293 281 262 263 266 239 224 211 218 216 246 248 232 162 159 172 167 169 189 199 198 186 161 139 149 157 156 163 176 160 164 180 182 183 190 193 199 196 189 201 207 200 209 215
276 308 344 272 250 222 206 211 188 210 233 188 163 195 201 193 187 188 201 213 206 197 192 182 180 164 163 168 160 159 168 180 181 179 186 194 192 188 194 205 201 207 217 217
234 8 230 246 270 158 153 252 258 222 210 188 192 202 199 184 175 189 217 221 198 177 162 157 147 130 136 131 135 155 164 176 191 180 181 174 170 179 193 199 203 213 221 223
141 214 274 292 290 175 172 277 313 160 153 123 122 63 9 346 157 199 224 224 191 173 154 133 131 140 116 109 114 131 153 172 180 172 172 172 178 188 185 187 202 210 212 209
145 181 234 251 293 302 116 274 293 129 148 131 101 123 254 284 313 320 32 83 115 127 116 121 148 139 126 134 131 146 164 174 165 148 163 179 184 183 172 182 207 203 213 224
178 214 258 270 299 26 160 246 265 192 185 170 180 213 225 214 305 343 56 66 94 114 133 158 149 134 137 139 175 198 143 105 116 146 164 164 160 163 163 161 153 149 224 268
158 196 252 298 24 167 226 260 222 224 209 201 219 198 167 164 200 146 123 90 98 108 122 114 127 138 153 181 194 136 113 111 115 150 156 145 150 154 141 135 141 174 206 286
193 217 250 285 259 261 224 241 248 228 231 194 192 194 181 173 283 318 149 117 103 120 127 110 146 152 174 199 142 117 112 115 112 96 112 127 140 141 132 144 166 193 203 229
260 268 280 298 301 302 271 238 237 219 216 193 197 195 186 189 308 328 324 111 108 117 131 127 37 119 182 169 132 124 131 128 122 101 76 86 111 146 163 176 178 192 211 219
263 276 300 303 304 305 311 305 347 284 196 188 170 166 173 188 238 305 324 27 121 150 183 228 231 188 101 122 131 137 137 138 133 125 123 98 78 141 188 205 201 195 209 208
237 243 237 269 289 301 295 273 244 201 237 197 175 189 185 192 214 262 276 249 145 70 301 279 237 288 67 110 138 140 141 165 177 160 140 141 125 47 46 72 56 97 193 201
239 254 250 270 284 285 274 270 254 214 197 205 216 198 195 201 203 195 221 234 210 222 239 242 218 253 260 157 152 152 165 186 187 177 170 167 162 157 91 43 53 56 62 77
244 255 276 278 275 282 273 267 262 241 209 197 214 208 193 192 190 192 217 230 234 216 196 168 189 265 262 181 165 171 180 194 195 196 191 182 182 186 180 176 207 10 32 47
277 242 241 267 281 287 272 184 125 272 256 252 200 175 162 161 196 227 222 221 239 114 120 142 209 262 259 159 163 182 188 197 199 197 190 185 178 176 171 168 177 203 0 10
306 313 283 271 272 283 309 288 202 245 247 242 218 186 142 148 197 244 210 151 141 157 203 188 236 260 242 160 166 185 196 201 190 174 170 161 158 165 165 164 167 182 250 286
282 288 274 282 281 281 272 252 230 235 233 228 205 156 123 124 110 308 34 108 158 189 206 182 245 265 203 173 173 185 187 176 148 138 149 148 156 167 184 176 191 220 246 243
233 240 234 224 228 235 248 239 202 161 156 185 142 118 128 155 176 189 42 72 75 52 13 342 289 120 128 139 143 146 146 151 141 139 138 151 159 167 181 186 208 229 263 270
290 247 244 235 219 196 195 175 157 148 135 121 121 127 248 171 155 143 91 79 70 23 332 340 22 93 106 126 122 124 137 135 127 131 141 150 161 171 180 199 221 235 247 254
359 353 351 11 56 99 130 126 113 105 99 122 128 127 105 64 72 77 73 65 358 259 288 357 55 75 90 105 108 114 127 135 141 140 140 158 168 178 191 211 223 230 238 240
21 31 46 53 49 49 70 96 107 100 83 108 130 143 148 99 68 86 84 22 324 342 14 24 37 28 54 84 91 105 117 128 138 155 165 167 164 174 202 226 236 238 232 235
29 52 59 61 56 36 29 51 80 92 88 101 121 131 126 96 66 71 74 220 296 357 36 24 22 48 75 82 87 92 96 103 107 112 123 153 163 181 230 247 250 251 241 240
10 45 51 45 46 38 30 35 50 78 101 123 130 136 151 169 137 128 308 306 349 42 49 22 31 50 57 71 87 96 101 103 109 129 161 191 208 221 243 263 268 261 249 254
29 32 37 40 52 55 33 9 29 50 67 75 95 127 138 107 39 233 204 280 21 51 48 20 25 37 57 76 83 90 103 121 139 163 195 244 248 244 246 261 280 286 268 266
34 34 45 54 56 47 28 29 35 35 40 35 22 21 60 148 171 246 45 50 47 48 38 21 24 34 57 77 89 102 116 147 163 152 117 80 298 255 260 269 274 281 293 288
14 24 7 3 170 169 115 82 65 31 43 27 1 0 22 43 72 71 65 57 52 51 45 26 23 36 53 69 88 114 130 118 112 110 124 128 81 51 16 6 9 5 324 310
18 33 34 27 26 106 133 126 119 52 61 88 343 344 2 36 60 69 72 63 53 51 45 35 35 41 50 65 83 89 104 119 118 94 60 32 9 271 273 292 313 328 335 328